Location: Unspecified
(41.1637°N, 24.2901°E)
Time: 16:12:42
(UTC+02:00)

ISS - Pass Details

Date: 11 October 2019
Orbit: 411 x 421 km, 51.6° (Epoch: 18 October)

Event Time Altitude Azimuth Distance (km) Brightness Sun altitude
Rises 18:57:57 0° 290° (WNW) 2,343 1.6 -13.8°
Reaches altitude 10° 19:00:40 10° 266° (W) 1,476 0.4 -14.3°
Maximum altitude 19:02:39 15° 229° (SW) 1,203 -0.8 -14.6°
Drops below altitude 10° 19:04:39 10° 192° (SSW) 1,469 -0.9 -15.0°
Enters shadow 19:07:19 - 168° (SSE) 2,318 -0.1 -15.5°
